Time,TemperatureF,DewpointF,PressureIn,WindDirection,WindDirectionDegrees,WindSpeedMPH,WindSpeedGustMPH,Humidity,HourlyPrecipIn,Conditions,Clouds,dailyrainin,SoftwareType,DateUTC
2013-01-03 00:00:00,38.3,27.2,30.05,East,81,0.0,1.0,64,0.00,,SKC,0.00,VWS V14.01,2013-01-03 07:00:00,
2013-01-03 00:05:00,38.2,27.5,30.05,SSE,153,0.0,1.0,65,0.00,,SKC,0.00,VWS V14.01,2013-01-03 07:05:00,
2013-01-03 00:10:00,37.0,27.4,30.05,SSE,157,1.0,2.0,68,0.00,,SKC,0.00,VWS V14.01,2013-01-03 07:10:00,
2013-01-03 00:15:00,36.4,27.2,30.05,SSE,157,1.0,2.0,69,0.00,,SKC,0.00,VWS V14.01,2013-01-03 07:15:00,
2013-01-03 00:20:00,36.1,27.3,30.05,SSE,156,0.0,1.0,70,0.00,,SKC,0.00,VWS V14.01,2013-01-03 07:20:00,
2013-01-03 00:25:00,36.0,27.2,30.05,SSE,157,0.0,1.0,70,0.00,,SKC,0.00,VWS V14.01,2013-01-03 07:25:00,
2013-01-03 00:30:00,36.0,27.2,30.05,SSE,157,0.0,1.0,70,0.00,,SKC,0.00,VWS V14.01,2013-01-03 07:30:00,
2013-01-03 00:35:00,36.1,27.3,30.05,SSE,156,0.0,0.0,70,0.00,,SKC,0.00,VWS V14.01,2013-01-03 07:35:00,
2013-01-03 00:40:00,36.2,27.0,30.05,SSE,156,0.0,0.0,69,0.00,,SKC,0.00,VWS V14.01,2013-01-03 07:40:00,
2013-01-03 00:45:00,36.5,27.0,30.05,SSE,155,0.0,0.0,68,0.00,,SKC,0.00,VWS V14.01,2013-01-03 07:45:00,
2013-01-03 00:46:00,36.5,27.0,30.05,SSE,155,0.0,0.0,68,0.00,,SKC,0.00,VWS V14.01,2013-01-03 07:46:00,
2013-01-03 00:51:00,36.8,27.2,30.05,SSE,155,0.0,0.0,68,0.00,,SKC,0.00,VWS V14.01,2013-01-03 07:51:00,
2013-01-03 00:56:00,37.0,27.1,30.04,SSE,153,0.0,1.0,67,0.00,,SKC,0.00,VWS V14.01,2013-01-03 07:56:00,
2013-01-03 01:00:00,37.2,26.9,30.04,SSE,150,0.0,2.0,66,0.00,,SKC,0.00,VWS V14.01,2013-01-03 08:00:00,
2013-01-03 01:01:00,37.2,26.9,30.05,SSE,150,0.0,2.0,66,0.00,,SKC,0.00,VWS V14.01,2013-01-03 08:01:00,
2013-01-03 01:06:00,37.4,26.7,30.04,SSE,149,0.0,0.0,65,0.00,,SKC,0.00,VWS V14.01,2013-01-03 08:06:00,
2013-01-03 01:11:00,37.4,26.7,30.04,SSE,149,0.0,0.0,65,0.00,,SKC,0.00,VWS V14.01,2013-01-03 08:11:00,
2013-01-03 01:15:00,37.5,26.5,30.04,SSE,147,0.0,0.0,64,0.00,,SKC,0.00,VWS V14.01,2013-01-03 08:15:00,
2013-01-03 01:16:00,37.5,26.5,30.04,SSE,147,0.0,0.0,64,0.00,,SKC,0.00,VWS V14.01,2013-01-03 08:16:00,
2013-01-03 01:21:00,37.8,26.7,30.05,SE,139,1.0,2.0,64,0.00,,SKC,0.00,VWS V14.01,2013-01-03 08:21:00,
2013-01-03 01:26:00,38.3,26.0,30.05,SE,138,0.0,2.0,61,0.00,,SKC,0.00,VWS V14.01,2013-01-03 08:26:00,
2013-01-03 01:30:00,38.7,26.0,30.05,SE,138,0.0,2.0,60,0.00,,SKC,0.00,VWS V14.01,2013-01-03 08:30:00,
2013-01-03 01:31:00,38.7,26.0,30.05,SE,138,0.0,0.0,60,0.00,,SKC,0.00,VWS V14.01,2013-01-03 08:31:00,
2013-01-03 01:36:00,38.9,25.8,30.04,SE,138,0.0,0.0,59,0.00,,SKC,0.00,VWS V14.01,2013-01-03 08:36:00,
2013-01-03 01:42:00,39.1,26.0,30.05,SE,138,0.0,0.0,59,0.00,,SKC,0.00,VWS V14.01,2013-01-03 08:42:00,
2013-01-03 01:45:00,39.0,25.9,30.05,SE,138,0.0,0.0,59,0.00,,SKC,0.00,VWS V14.01,2013-01-03 08:45:00,
2013-01-03 01:47:00,39.0,25.9,30.05,SE,138,0.0,0.0,59,0.00,,SKC,0.00,VWS V14.01,2013-01-03 08:47:00,
2013-01-03 01:52:00,38.7,25.6,30.05,ENE,68,3.0,3.0,59,0.00,,SKC,0.00,VWS V14.01,2013-01-03 08:52:00,
2013-01-03 01:57:00,38.5,25.4,30.06,NNE,21,3.0,5.0,59,0.00,,SKC,0.00,VWS V14.01,2013-01-03 08:57:00,
2013-01-03 02:00:00,38.4,25.7,30.06,NNE,21,0.0,5.0,60,0.00,,SKC,0.00,VWS V14.01,2013-01-03 09:00:00,
2013-01-03 02:02:00,38.4,25.7,30.06,NNE,21,0.0,0.0,60,0.00,,SKC,0.00,VWS V14.01,2013-01-03 09:02:00,
2013-01-03 02:07:00,38.2,26.0,30.06,NNE,21,0.0,0.0,61,0.00,,SKC,0.00,VWS V14.01,2013-01-03 09:07:00,
2013-01-03 02:12:00,37.9,25.7,30.05,NNE,21,0.0,0.0,61,0.00,,SKC,0.00,VWS V14.01,2013-01-03 09:12:00,
2013-01-03 02:15:00,37.5,25.7,30.05,NNE,21,0.0,0.0,62,0.00,,SKC,0.00,VWS V14.01,2013-01-03 09:15:00,
2013-01-03 02:17:00,37.5,26.1,30.05,NNE,21,0.0,0.0,63,0.00,,SKC,0.00,VWS V14.01,2013-01-03 09:17:00,
2013-01-03 02:22:00,37.4,26.0,30.05,NNE,21,0.0,0.0,63,0.00,,SKC,0.00,VWS V14.01,2013-01-03 09:22:00,
2013-01-03 02:27:00,37.3,25.9,30.05,ESE,121,1.0,2.0,63,0.00,,SKC,0.00,VWS V14.01,2013-01-03 09:27:00,
2013-01-03 02:30:00,37.8,26.0,30.05,SE,141,1.0,2.0,62,0.00,,SKC,0.00,VWS V14.01,2013-01-03 09:30:00,
2013-01-03 02:32:00,38.0,25.8,30.05,SE,142,1.0,2.0,61,0.00,,SKC,0.00,VWS V14.01,2013-01-03 09:32:00,
2013-01-03 02:37:00,38.4,25.7,30.05,SSE,153,2.0,3.0,60,0.00,,SKC,0.00,VWS V14.01,2013-01-03 09:37:00,
2013-01-03 02:42:00,38.6,25.9,30.05,SSE,163,0.0,3.0,60,0.00,,SKC,0.00,VWS V14.01,2013-01-03 09:42:00,
2013-01-03 02:45:00,38.4,26.1,30.05,SSE,164,0.0,3.0,61,0.00,,SKC,0.00,VWS V14.01,2013-01-03 09:45:00,
2013-01-03 02:47:00,38.4,26.1,30.05,SSE,164,0.0,0.0,61,0.00,,SKC,0.00,VWS V14.01,2013-01-03 09:47:00,
2013-01-03 02:53:00,38.0,26.1,30.05,SSE,164,0.0,0.0,62,0.00,,SKC,0.00,VWS V14.01,2013-01-03 09:53:00,
2013-01-03 02:58:00,37.5,26.1,30.05,SSE,164,0.0,0.0,63,0.00,,SKC,0.00,VWS V14.01,2013-01-03 09:58:00,
2013-01-03 03:00:00,37.2,25.8,30.05,SSE,164,0.0,0.0,63,0.00,,SKC,0.00,VWS V14.01,2013-01-03 10:00:00,
2013-01-03 03:03:00,37.1,26.1,30.05,SSE,164,0.0,0.0,64,0.00,,SKC,0.00,VWS V14.01,2013-01-03 10:03:00,
2013-01-03 03:08:00,36.8,26.1,30.05,SSE,164,0.0,0.0,65,0.00,,SKC,0.00,VWS V14.01,2013-01-03 10:08:00,
2013-01-03 03:13:00,36.4,26.1,30.05,SSE,164,0.0,0.0,66,0.00,,SKC,0.00,VWS V14.01,2013-01-03 10:13:00,
2013-01-03 03:15:00,36.1,26.2,30.05,SSE,167,1.0,2.0,67,0.00,,SKC,0.00,VWS V14.01,2013-01-03 10:15:00,
2013-01-03 03:18:00,35.9,26.0,30.05,SSE,168,1.0,2.0,67,0.00,,SKC,0.00,VWS V14.01,2013-01-03 10:18:00,
2013-01-03 03:23:00,35.6,25.7,30.05,South,176,1.0,3.0,67,0.00,,SKC,0.00,VWS V14.01,2013-01-03 10:23:00,
2013-01-03 03:28:00,35.2,25.7,30.05,South,177,0.0,3.0,68,0.00,,SKC,0.00,VWS V14.01,2013-01-03 10:28:00,
2013-01-03 03:30:00,34.9,25.8,30.04,South,177,0.0,3.0,69,0.00,,SKC,0.00,VWS V14.01,2013-01-03 10:30:00,
2013-01-03 03:33:00,34.7,25.6,30.04,South,176,0.0,1.0,69,0.00,,SKC,0.00,VWS V14.01,2013-01-03 10:33:00,
2013-01-03 03:38:00,34.4,25.6,30.04,South,176,0.0,1.0,70,0.00,,SKC,0.00,VWS V14.01,2013-01-03 10:38:00,
2013-01-03 03:43:00,34.4,25.6,30.04,South,176,0.0,1.0,70,0.00,,SKC,0.00,VWS V14.01,2013-01-03 10:43:00,
2013-01-03 03:45:00,34.4,26.0,30.04,South,176,0.0,1.0,71,0.00,,SKC,0.00,VWS V14.01,2013-01-03 10:45:00,
2013-01-03 03:48:00,34.4,26.0,30.04,South,177,0.0,0.0,71,0.00,,SKC,0.00,VWS V14.01,2013-01-03 10:48:00,
2013-01-03 03:53:00,34.2,25.8,30.04,South,177,0.0,0.0,71,0.00,,SKC,0.00,VWS V14.01,2013-01-03 10:53:00,
2013-01-03 03:58:00,34.1,26.0,30.04,South,176,0.0,0.0,72,0.00,,SKC,0.00,VWS V14.01,2013-01-03 10:58:00,
2013-01-03 04:00:00,34.0,25.6,30.04,South,176,0.0,0.0,71,0.00,,SKC,0.00,VWS V14.01,2013-01-03 11:00:00,
2013-01-03 04:03:00,34.0,25.9,30.04,South,177,0.0,0.0,72,0.00,,SKC,0.00,VWS V14.01,2013-01-03 11:03:00,
2013-01-03 04:08:00,33.9,25.8,30.04,South,177,0.0,0.0,72,0.00,,SKC,0.00,VWS V14.01,2013-01-03 11:08:00,
2013-01-03 04:14:00,33.9,25.5,30.04,South,177,0.0,0.0,71,0.00,,SKC,0.00,VWS V14.01,2013-01-03 11:14:00,
2013-01-03 04:15:00,33.9,25.5,30.04,South,177,0.0,0.0,71,0.00,,SKC,0.00,VWS V14.01,2013-01-03 11:15:00,
2013-01-03 04:19:00,33.9,25.5,30.04,South,176,0.0,0.0,71,0.00,,SKC,0.00,VWS V14.01,2013-01-03 11:19:00,
2013-01-03 04:24:00,33.8,25.7,30.04,South,177,0.0,0.0,72,0.00,,SKC,0.00,VWS V14.01,2013-01-03 11:24:00,
2013-01-03 04:29:00,33.4,25.4,30.04,South,176,0.0,1.0,72,0.00,,SKC,0.00,VWS V14.01,2013-01-03 11:29:00,
2013-01-03 04:30:00,33.4,25.4,30.04,South,176,0.0,1.0,72,0.00,,SKC,0.00,VWS V14.01,2013-01-03 11:30:00,
2013-01-03 04:34:00,33.3,25.6,30.04,South,176,0.0,0.0,73,0.00,,SKC,0.00,VWS V14.01,2013-01-03 11:34:00,
2013-01-03 04:39:00,33.4,25.7,30.04,South,177,0.0,2.0,73,0.00,,SKC,0.00,VWS V14.01,2013-01-03 11:39:00,
2013-01-03 04:44:00,34.0,25.9,30.04,South,176,0.0,2.0,72,0.00,,SKC,0.00,VWS V14.01,2013-01-03 11:44:00,
2013-01-03 04:45:00,34.4,26.0,30.04,South,177,0.0,2.0,71,0.00,,SKC,0.00,VWS V14.01,2013-01-03 11:45:00,
2013-01-03 04:49:00,34.7,25.9,30.04,South,176,0.0,0.0,70,0.00,,SKC,0.00,VWS V14.01,2013-01-03 11:49:00,
2013-01-03 04:54:00,35.2,25.7,30.04,South,176,0.0,0.0,68,0.00,,SKC,0.00,VWS V14.01,2013-01-03 11:54:00,
2013-01-03 04:59:00,35.4,25.9,30.04,South,176,0.0,0.0,68,0.00,,SKC,0.00,VWS V14.01,2013-01-03 11:59:00,
2013-01-03 05:00:00,35.5,25.6,30.04,South,177,0.0,0.0,67,0.00,,SKC,0.00,VWS V14.01,2013-01-03 12:00:00,
2013-01-03 05:04:00,35.8,25.6,30.04,South,176,1.0,1.0,66,0.00,,SKC,0.00,VWS V14.01,2013-01-03 12:04:00,
2013-01-03 05:10:00,36.8,25.8,30.04,SSE,161,0.0,1.0,64,0.00,,SKC,0.00,VWS V14.01,2013-01-03 12:10:00,
2013-01-03 05:15:00,38.5,25.4,30.04,ENE,75,1.0,3.0,59,0.00,,SKC,0.00,VWS V14.01,2013-01-03 12:15:00,
2013-01-03 05:20:00,40.0,25.6,30.04,ENE,74,0.0,2.0,56,0.00,,SKC,0.00,VWS V14.01,2013-01-03 12:20:00,
2013-01-03 05:25:00,40.6,25.3,30.04,ENE,71,3.0,4.0,54,0.00,,SKC,0.00,VWS V14.01,2013-01-03 12:25:00,
2013-01-03 05:30:00,41.2,25.4,30.04,ENE,71,1.0,4.0,53,0.00,,SKC,0.00,VWS V14.01,2013-01-03 12:30:00,
2013-01-03 05:35:00,41.8,25.5,30.04,East,91,1.0,3.0,52,0.00,,SKC,0.00,VWS V14.01,2013-01-03 12:35:00,
2013-01-03 05:40:00,41.9,25.1,30.04,East,91,0.0,3.0,51,0.00,,SKC,0.00,VWS V14.01,2013-01-03 12:40:00,
2013-01-03 05:45:00,42.1,24.8,30.04,East,91,0.0,3.0,50,0.00,,SKC,0.00,VWS V14.01,2013-01-03 12:45:00,
2013-01-03 05:50:00,42.2,24.9,30.05,East,91,0.0,0.0,50,0.00,,SKC,0.00,VWS V14.01,2013-01-03 12:50:00,
2013-01-03 05:56:00,42.2,24.9,30.05,East,91,0.0,2.0,50,0.00,,SKC,0.00,VWS V14.01,2013-01-03 12:56:00,
2013-01-03 06:00:00,42.4,24.6,30.05,East,90,0.0,3.0,49,0.00,,SKC,0.00,VWS V14.01,2013-01-03 13:00:00,
2013-01-03 06:01:00,42.4,25.1,30.05,East,90,0.0,3.0,50,0.00,,SKC,0.00,VWS V14.01,2013-01-03 13:01:00,
2013-01-03 06:06:00,42.4,24.6,30.05,East,90,0.0,0.0,49,0.00,,SKC,0.00,VWS V14.01,2013-01-03 13:06:00,
2013-01-03 06:11:00,42.3,24.5,30.05,East,90,0.0,2.0,49,0.00,,SKC,0.00,VWS V14.01,2013-01-03 13:11:00,
2013-01-03 06:15:00,42.1,24.8,30.05,ENE,61,0.0,4.0,50,0.00,,SKC,0.00,VWS V14.01,2013-01-03 13:15:00,
2013-01-03 06:16:00,42.1,24.8,30.05,ENE,61,1.0,4.0,50,0.00,,SKC,0.00,VWS V14.01,2013-01-03 13:16:00,
2013-01-03 06:21:00,42.1,24.3,30.06,NE,51,0.0,3.0,49,0.00,,SKC,0.00,VWS V14.01,2013-01-03 13:21:00,
2013-01-03 06:26:00,42.2,24.4,30.06,NE,51,0.0,3.0,49,0.00,,SKC,0.00,VWS V14.01,2013-01-03 13:26:00,
2013-01-03 06:30:00,41.5,25.7,30.06,East,81,0.0,3.0,53,0.00,,SKC,0.00,VWS V14.01,2013-01-03 13:30:00,
2013-01-03 06:31:00,41.5,25.7,30.06,East,81,0.0,3.0,53,0.00,,SKC,0.00,VWS V14.01,2013-01-03 13:31:00,
2013-01-03 06:36:00,38.7,24.8,30.07,West,266,2.0,4.0,57,0.00,,SKC,0.00,VWS V14.01,2013-01-03 13:36:00,
2013-01-03 06:41:00,35.6,24.3,30.07,West,266,0.0,4.0,63,0.00,,SKC,0.00,VWS V14.01,2013-01-03 13:41:00,
2013-01-03 06:45:00,33.9,23.8,30.07,West,264,0.0,4.0,66,0.00,,SKC,0.00,VWS V14.01,2013-01-03 13:45:00,
2013-01-03 06:46:00,33.8,23.7,30.07,West,264,0.0,0.0,66,0.00,,SKC,0.00,VWS V14.01,2013-01-03 13:46:00,
2013-01-03 06:51:00,32.9,23.9,30.07,West,264,0.0,2.0,69,0.00,,SKC,0.00,VWS V14.01,2013-01-03 13:51:00,
2013-01-03 06:57:00,32.3,23.6,30.07,West,264,0.0,2.0,70,0.00,,SKC,0.00,VWS V14.01,2013-01-03 13:57:00,
2013-01-03 07:00:00,31.7,23.4,30.07,West,264,0.0,2.0,71,0.00,,SKC,0.00,VWS V14.01,2013-01-03 14:00:00,
2013-01-03 07:02:00,31.6,23.3,30.07,West,264,0.0,2.0,71,0.00,,SKC,0.00,VWS V14.01,2013-01-03 14:02:00,
2013-01-03 07:07:00,30.9,23.3,30.07,West,264,0.0,2.0,73,0.00,,SKC,0.00,VWS V14.01,2013-01-03 14:07:00,
2013-01-03 07:12:00,30.4,23.1,30.08,West,263,0.0,2.0,74,0.00,,SKC,0.00,VWS V14.01,2013-01-03 14:12:00,
2013-01-03 07:15:00,29.8,22.9,30.07,South,171,2.0,3.0,75,0.00,,SKC,0.00,VWS V14.01,2013-01-03 14:15:00,
2013-01-03 07:17:00,29.7,22.8,30.07,South,171,0.0,2.0,75,0.00,,SKC,0.00,VWS V14.01,2013-01-03 14:17:00,
2013-01-03 07:22:00,29.4,22.8,30.08,South,171,0.0,2.0,76,0.00,,SKC,0.00,VWS V14.01,2013-01-03 14:22:00,
2013-01-03 07:27:00,29.4,23.1,30.08,South,171,0.0,2.0,77,0.00,,SKC,0.00,VWS V14.01,2013-01-03 14:27:00,
2013-01-03 07:30:00,29.5,23.2,30.08,South,171,0.0,2.0,77,0.00,,SKC,0.00,VWS V14.01,2013-01-03 14:30:00,
2013-01-03 07:32:00,29.6,23.3,30.08,South,171,0.0,0.0,77,0.00,,SKC,0.00,VWS V14.01,2013-01-03 14:32:00,
2013-01-03 07:37:00,29.9,23.6,30.08,South,171,0.0,0.0,77,0.00,,SKC,0.00,VWS V14.01,2013-01-03 14:37:00,
2013-01-03 07:43:00,30.3,24.0,30.08,South,171,0.0,0.0,77,0.00,,SKC,0.00,VWS V14.01,2013-01-03 14:43:00,
2013-01-03 07:45:00,30.6,24.3,30.09,South,171,0.0,0.0,77,0.00,,SKC,0.00,VWS V14.01,2013-01-03 14:45:00,
2013-01-03 07:48:00,30.7,24.4,30.09,South,171,0.0,0.0,77,0.00,,SKC,0.00,VWS V14.01,2013-01-03 14:48:00,
2013-01-03 07:53:00,30.9,24.2,30.09,South,171,0.0,0.0,76,0.00,,SKC,0.00,VWS V14.01,2013-01-03 14:53:00,
2013-01-03 07:58:00,31.1,24.4,30.09,South,171,0.0,0.0,76,0.00,,SKC,0.00,VWS V14.01,2013-01-03 14:58:00,
2013-01-03 08:00:00,31.3,24.6,30.09,South,171,0.0,0.0,76,0.00,,SKC,0.00,VWS V14.01,2013-01-03 15:00:00,
2013-01-03 08:03:00,31.5,24.8,30.09,South,171,0.0,0.0,76,0.00,,SKC,0.00,VWS V14.01,2013-01-03 15:03:00,
2013-01-03 08:08:00,32.2,25.2,30.09,South,171,0.0,0.0,75,0.00,,SKC,0.00,VWS V14.01,2013-01-03 15:08:00,
2013-01-03 08:13:00,33.3,25.9,30.09,South,171,0.0,0.0,74,0.00,,SKC,0.00,VWS V14.01,2013-01-03 15:13:00,
2013-01-03 08:15:00,34.3,26.2,30.10,South,171,0.0,0.0,72,0.00,,SKC,0.00,VWS V14.01,2013-01-03 15:15:00,
2013-01-03 08:18:00,34.7,26.3,30.10,South,171,0.0,0.0,71,0.00,,SKC,0.00,VWS V14.01,2013-01-03 15:18:00,
2013-01-03 08:23:00,35.4,26.3,30.10,SSE,159,0.0,2.0,69,0.00,,SKC,0.00,VWS V14.01,2013-01-03 15:23:00,
2013-01-03 08:28:00,36.1,26.9,30.10,SSE,157,0.0,2.0,69,0.00,,SKC,0.00,VWS V14.01,2013-01-03 15:28:00,
2013-01-03 08:30:00,36.5,27.0,30.11,SSE,158,0.0,2.0,68,0.00,,SKC,0.00,VWS V14.01,2013-01-03 15:30:00,
2013-01-03 08:33:00,37.0,27.1,30.11,SSE,158,0.0,0.0,67,0.00,,SKC,0.00,VWS V14.01,2013-01-03 15:33:00,
2013-01-03 08:38:00,38.0,27.3,30.11,SSE,158,0.0,0.0,65,0.00,,SKC,0.00,VWS V14.01,2013-01-03 15:38:00,
2013-01-03 08:43:00,39.4,27.9,30.11,SSE,157,0.0,0.0,63,0.00,,SKC,0.00,VWS V14.01,2013-01-03 15:43:00,
2013-01-03 08:45:00,40.2,28.2,30.11,SSE,158,0.0,0.0,62,0.00,,SKC,0.00,VWS V14.01,2013-01-03 15:45:00,
2013-01-03 08:49:00,41.3,26.4,30.11,ESE,102,0.0,3.0,55,0.00,,SKC,0.00,VWS V14.01,2013-01-03 15:49:00,
2013-01-03 08:54:00,43.4,26.0,30.11,ESE,102,0.0,3.0,50,0.00,,SKC,0.00,VWS V14.01,2013-01-03 15:54:00,
2013-01-03 08:59:00,45.3,25.2,30.11,SE,136,0.0,3.0,45,0.00,,SKC,0.00,VWS V14.01,2013-01-03 15:59:00,
2013-01-03 09:00:00,46.2,25.0,30.11,ESE,114,2.0,4.0,43,0.00,,SKC,0.00,VWS V14.01,2013-01-03 16:00:00,
2013-01-03 09:04:00,46.7,24.8,30.11,SE,128,0.0,2.0,42,0.00,,SKC,0.00,VWS V14.01,2013-01-03 16:04:00,
2013-01-03 09:09:00,47.5,25.6,30.11,SE,128,5.0,5.0,42,0.00,,SKC,0.00,VWS V14.01,2013-01-03 16:09:00,
2013-01-03 09:14:00,47.9,25.4,30.11,ESE,107,0.0,5.0,41,0.00,,SKC,0.00,VWS V14.01,2013-01-03 16:14:00,
2013-01-03 09:15:00,47.9,24.8,30.11,East,99,0.0,5.0,40,0.00,,SKC,0.00,VWS V14.01,2013-01-03 16:15:00,
2013-01-03 09:19:00,48.0,25.4,30.11,ESE,105,0.0,4.0,41,0.00,,SKC,0.00,VWS V14.01,2013-01-03 16:19:00,
2013-01-03 09:24:00,47.9,24.8,30.10,ESE,111,0.0,7.0,40,0.00,,SKC,0.00,VWS V14.01,2013-01-03 16:24:00,
2013-01-03 09:29:00,48.1,24.3,30.10,SE,131,0.0,7.0,39,0.00,,SKC,0.00,VWS V14.01,2013-01-03 16:29:00,
2013-01-03 09:30:00,48.4,24.6,30.10,East,86,1.0,7.0,39,0.00,,SKC,0.00,VWS V14.01,2013-01-03 16:30:00,
2013-01-03 09:34:00,48.5,24.7,30.11,East,83,1.0,5.0,39,0.00,,SKC,0.00,VWS V14.01,2013-01-03 16:34:00,
2013-01-03 09:39:00,48.6,24.8,30.11,ESE,105,0.0,8.0,39,0.00,,SKC,0.00,VWS V14.01,2013-01-03 16:39:00,
2013-01-03 09:44:00,49.2,24.7,30.11,SE,126,1.0,8.0,38,0.00,,SKC,0.00,VWS V14.01,2013-01-03 16:44:00,
2013-01-03 09:45:00,49.4,24.9,30.11,SE,140,3.0,8.0,38,0.00,,SKC,0.00,VWS V14.01,2013-01-03 16:45:00,
2013-01-03 09:49:00,49.7,24.5,30.11,SE,129,6.0,6.0,37,0.00,,SKC,0.00,VWS V14.01,2013-01-03 16:49:00,
2013-01-03 09:55:00,49.9,24.7,30.11,East,98,5.0,7.0,37,0.00,,SKC,0.00,VWS V14.01,2013-01-03 16:55:00,
2013-01-03 10:00:00,49.8,24.6,30.11,SE,145,5.0,9.0,37,0.00,,SKC,0.00,VWS V14.01,2013-01-03 17:00:00,
2013-01-03 10:05:00,50.3,24.4,30.11,SE,130,4.0,9.0,36,0.00,,SKC,0.00,VWS V14.01,2013-01-03 17:05:00,
2013-01-03 10:10:00,50.8,24.8,30.11,ESE,115,0.0,9.0,36,0.00,,SKC,0.00,VWS V14.01,2013-01-03 17:10:00,
2013-01-03 10:15:00,51.0,25.0,30.11,SSE,150,0.0,9.0,36,0.00,,SKC,0.00,VWS V14.01,2013-01-03 17:15:00,
2013-01-03 10:20:00,51.3,24.6,30.11,SE,142,2.0,9.0,35,0.00,,SKC,0.00,VWS V14.01,2013-01-03 17:20:00,
2013-01-03 10:25:00,51.7,24.3,30.11,SE,138,5.0,9.0,34,0.00,,SKC,0.00,VWS V14.01,2013-01-03 17:25:00,
2013-01-03 10:30:00,51.8,24.3,30.10,SE,127,11.0,11.0,34,0.00,,SKC,0.00,VWS V14.01,2013-01-03 17:30:00,
2013-01-03 10:35:00,52.2,24.7,30.10,ESE,113,5.0,10.0,34,0.00,,SKC,0.00,VWS V14.01,2013-01-03 17:35:00,
2013-01-03 10:40:00,52.6,25.0,30.10,SSE,160,6.0,11.0,34,0.00,,SKC,0.00,VWS V14.01,2013-01-03 17:40:00,
2013-01-03 10:45:00,52.9,25.3,30.10,SE,136,4.0,12.0,34,0.00,,SKC,0.00,VWS V14.01,2013-01-03 17:45:00,
2013-01-03 10:50:00,53.4,25.0,30.10,SE,133,0.0,10.0,33,0.00,,SKC,0.00,VWS V14.01,2013-01-03 17:50:00,
2013-01-03 10:55:00,53.9,25.5,30.10,SE,127,3.0,11.0,33,0.00,,SKC,0.00,VWS V14.01,2013-01-03 17:55:00,
2013-01-03 11:00:00,54.2,25.7,30.10,SSE,165,3.0,11.0,33,0.00,,SKC,0.00,VWS V14.01,2013-01-03 18:00:00,
2013-01-03 11:01:00,54.1,25.6,30.10,SE,129,3.0,11.0,33,0.00,,SKC,0.00,VWS V14.01,2013-01-03 18:01:00,
2013-01-03 11:06:00,54.5,26.0,30.10,ESE,113,0.0,9.0,33,0.00,,SKC,0.00,VWS V14.01,2013-01-03 18:06:00,
2013-01-03 11:11:00,54.7,25.4,30.10,East,93,6.0,13.0,32,0.00,,SKC,0.00,VWS V14.01,2013-01-03 18:11:00,
2013-01-03 11:15:00,54.8,25.5,30.10,SE,144,7.0,13.0,32,0.00,,SKC,0.00,VWS V14.01,2013-01-03 18:15:00,
2013-01-03 11:16:00,54.9,25.6,30.10,SE,141,4.0,13.0,32,0.00,,SKC,0.00,VWS V14.01,2013-01-03 18:16:00,
2013-01-03 11:21:00,55.3,26.7,30.10,East,98,5.0,7.0,33,0.00,,SKC,0.00,VWS V14.01,2013-01-03 18:21:00,
2013-01-03 11:26:00,55.0,25.7,30.10,East,88,3.0,14.0,32,0.00,,SKC,0.00,VWS V14.01,2013-01-03 18:26:00,
2013-01-03 11:30:00,55.1,26.5,30.09,East,79,3.0,14.0,33,0.00,,SKC,0.00,VWS V14.01,2013-01-03 18:30:00,
2013-01-03 11:31:00,55.1,26.5,30.09,East,79,3.0,14.0,33,0.00,,SKC,0.00,VWS V14.01,2013-01-03 18:31:00,
2013-01-03 11:36:00,55.4,26.0,30.09,East,87,1.0,10.0,32,0.00,,SKC,0.00,VWS V14.01,2013-01-03 18:36:00,
2013-01-03 11:41:00,55.5,26.1,30.09,East,98,6.0,10.0,32,0.00,,SKC,0.00,VWS V14.01,2013-01-03 18:41:00,
2013-01-03 11:45:00,56.0,26.6,30.09,East,87,3.0,10.0,32,0.00,,SKC,0.00,VWS V14.01,2013-01-03 18:45:00,
2013-01-03 11:47:00,56.1,26.7,30.09,SSE,150,5.0,6.0,32,0.00,,SKC,0.00,VWS V14.01,2013-01-03 18:47:00,
2013-01-03 11:52:00,56.2,26.8,30.09,SSE,147,8.0,14.0,32,0.00,,SKC,0.00,VWS V14.01,2013-01-03 18:52:00,
2013-01-03 11:57:00,56.4,26.9,30.08,East,91,10.0,14.0,32,0.00,,SKC,0.00,VWS V14.01,2013-01-03 18:57:00,
2013-01-03 12:00:00,56.7,27.2,30.08,East,101,1.0,14.0,32,0.00,,SKC,0.00,VWS V14.01,2013-01-03 19:00:00,
2013-01-03 12:02:00,56.7,27.2,30.08,SE,132,8.0,8.0,32,0.00,,SKC,0.00,VWS V14.01,2013-01-03 19:02:00,
2013-01-03 12:07:00,56.7,27.2,30.08,East,92,5.0,9.0,32,0.00,,SKC,0.00,VWS V14.01,2013-01-03 19:07:00,
2013-01-03 12:12:00,56.8,27.3,30.07,SE,142,9.0,11.0,32,0.00,,SKC,0.00,VWS V14.01,2013-01-03 19:12:00,
2013-01-03 12:15:00,56.9,27.4,30.07,SSE,153,7.0,12.0,32,0.00,,SKC,0.00,VWS V14.01,2013-01-03 19:15:00,
2013-01-03 12:17:00,56.9,27.4,30.07,SE,136,9.0,9.0,32,0.00,,SKC,0.00,VWS V14.01,2013-01-03 19:17:00,
2013-01-03 12:30:00,57.2,27.6,30.06,SE,139,11.0,15.0,32,0.00,,SKC,0.00,VWS V14.01,2013-01-03 19:30:00,
2013-01-03 12:45:00,57.9,28.2,30.05,South,169,9.0,12.0,32,0.00,,SKC,0.00,VWS V14.01,2013-01-03 19:45:00,
2013-01-03 12:51:00,58.3,27.8,30.05,SE,126,6.0,11.0,31,0.00,,SKC,0.00,VWS V14.01,2013-01-03 19:51:00,
2013-01-03 12:57:00,59.0,28.4,30.05,SE,129,4.0,11.0,31,0.00,,SKC,0.00,VWS V14.01,2013-01-03 19:57:00,
2013-01-03 13:00:00,59.0,28.4,30.05,SE,140,1.0,12.0,31,0.00,,SKC,0.00,VWS V14.01,2013-01-03 20:00:00,
2013-01-03 13:02:00,59.0,28.4,30.05,SE,138,3.0,4.0,31,0.00,,SKC,0.00,VWS V14.01,2013-01-03 20:02:00,
2013-01-03 13:07:00,59.5,28.9,30.05,NE,56,5.0,10.0,31,0.00,,SKC,0.00,VWS V14.01,2013-01-03 20:07:00,
2013-01-03 13:12:00,59.0,28.4,30.05,ESE,109,4.0,11.0,31,0.00,,SKC,0.00,VWS V14.01,2013-01-03 20:12:00,
2013-01-03 13:15:00,58.5,28.0,30.05,NE,49,6.0,11.0,31,0.00,,SKC,0.00,VWS V14.01,2013-01-03 20:15:00,
2013-01-03 13:17:00,58.5,28.0,30.05,ENE,72,9.0,9.0,31,0.00,,SKC,0.00,VWS V14.01,2013-01-03 20:17:00,
2013-01-03 13:22:00,58.5,28.0,30.05,SE,132,3.0,11.0,31,0.00,,SKC,0.00,VWS V14.01,2013-01-03 20:22:00,
2013-01-03 13:27:00,59.0,28.4,30.05,East,96,2.0,11.0,31,0.00,,SKC,0.00,VWS V14.01,2013-01-03 20:27:00,
2013-01-03 13:30:00,59.0,28.4,30.04,East,80,3.0,11.0,31,0.00,,SKC,0.00,VWS V14.01,2013-01-03 20:30:00,
2013-01-03 13:32:00,59.0,27.6,30.04,NNE,33,4.0,5.0,30,0.00,,SKC,0.00,VWS V14.01,2013-01-03 20:32:00,
2013-01-03 13:37:00,59.0,27.6,30.04,NE,44,0.0,7.0,30,0.00,,SKC,0.00,VWS V14.01,2013-01-03 20:37:00,
2013-01-03 13:42:00,59.3,28.7,30.05,ESE,115,0.0,7.0,31,0.00,,SKC,0.00,VWS V14.01,2013-01-03 20:42:00,
2013-01-03 13:45:00,59.9,28.4,30.04,ESE,123,1.0,7.0,30,0.00,,SKC,0.00,VWS V14.01,2013-01-03 20:45:00,
2013-01-03 13:47:00,60.0,28.5,30.04,ESE,123,0.0,1.0,30,0.00,,SKC,0.00,VWS V14.01,2013-01-03 20:47:00,
2013-01-03 13:52:00,60.5,28.1,30.04,East,101,3.0,8.0,29,0.00,,SKC,0.00,VWS V14.01,2013-01-03 20:52:00,
2013-01-03 13:57:00,60.1,28.6,30.04,SSE,153,0.0,8.0,30,0.00,,SKC,0.00,VWS V14.01,2013-01-03 20:57:00,
2013-01-03 14:00:00,60.4,29.6,30.04,SE,146,0.0,8.0,31,0.00,,SKC,0.00,VWS V14.01,2013-01-03 21:00:00,
2013-01-03 14:03:00,60.5,28.9,30.04,NE,41,0.0,4.0,30,0.00,,SKC,0.00,VWS V14.01,2013-01-03 21:03:00,
2013-01-03 14:08:00,60.4,28.9,30.04,ESE,103,4.0,7.0,30,0.00,,SKC,0.00,VWS V14.01,2013-01-03 21:08:00,
2013-01-03 14:13:00,59.9,28.4,30.04,East,101,0.0,7.0,30,0.00,,SKC,0.00,VWS V14.01,2013-01-03 21:13:00,
2013-01-03 14:15:00,59.9,28.4,30.04,ESE,113,0.0,7.0,30,0.00,,SKC,0.00,VWS V14.01,2013-01-03 21:15:00,
2013-01-03 14:18:00,60.2,28.7,30.04,ESE,114,0.0,0.0,30,0.00,,SKC,0.00,VWS V14.01,2013-01-03 21:18:00,
2013-01-03 14:23:00,60.4,28.9,30.04,South,190,1.0,5.0,30,0.00,,SKC,0.00,VWS V14.01,2013-01-03 21:23:00,
2013-01-03 14:28:00,61.0,28.5,30.04,SSW,195,0.0,5.0,29,0.00,,SKC,0.00,VWS V14.01,2013-01-03 21:28:00,
2013-01-03 14:30:00,61.4,28.9,30.04,SE,124,0.0,5.0,29,0.00,,SKC,0.00,VWS V14.01,2013-01-03 21:30:00,
2013-01-03 14:33:00,61.4,28.9,30.04,SE,139,2.0,5.0,29,0.00,,SKC,0.00,VWS V14.01,2013-01-03 21:33:00,
2013-01-03 14:38:00,61.4,29.7,30.04,ESE,105,0.0,7.0,30,0.00,,SKC,0.00,VWS V14.01,2013-01-03 21:38:00,
2013-01-03 14:44:00,62.0,29.4,30.04,SSE,167,3.0,7.0,29,0.00,,SKC,0.00,VWS V14.01,2013-01-03 21:44:00,
2013-01-03 14:45:00,61.9,29.3,30.04,SSE,164,2.0,7.0,29,0.00,,SKC,0.00,VWS V14.01,2013-01-03 21:45:00,
2013-01-03 14:49:00,61.6,29.1,30.04,SSE,155,2.0,2.0,29,0.00,,SKC,0.00,VWS V14.01,2013-01-03 21:49:00,
2013-01-03 14:54:00,61.6,29.1,30.04,SSE,167,0.0,3.0,29,0.00,,SKC,0.00,VWS V14.01,2013-01-03 21:54:00,
2013-01-03 14:59:00,62.1,29.5,30.04,SSE,163,0.0,3.0,29,0.00,,SKC,0.00,VWS V14.01,2013-01-03 21:59:00,
2013-01-03 15:00:00,62.3,29.7,30.04,SSE,163,0.0,3.0,29,0.00,,SKC,0.00,VWS V14.01,2013-01-03 22:00:00,
2013-01-03 15:04:00,62.3,29.7,30.04,SSW,200,5.0,8.0,29,0.00,,SKC,0.00,VWS V14.01,2013-01-03 22:04:00,
2013-01-03 15:09:00,61.0,29.4,30.04,WNW,290,1.0,8.0,30,0.00,,SKC,0.00,VWS V14.01,2013-01-03 22:09:00,
2013-01-03 15:14:00,61.0,29.4,30.04,NW,314,1.0,9.0,30,0.00,,SKC,0.00,VWS V14.01,2013-01-03 22:14:00,
2013-01-03 15:15:00,61.2,29.5,30.04,NW,306,1.0,9.0,30,0.00,,SKC,0.00,VWS V14.01,2013-01-03 22:15:00,
2013-01-03 15:20:00,61.1,29.5,30.05,North,360,8.0,9.0,30,0.00,,SKC,0.00,VWS V14.01,2013-01-03 22:20:00,
2013-01-03 15:25:00,61.2,29.5,30.05,NW,325,5.0,9.0,30,0.00,,SKC,0.00,VWS V14.01,2013-01-03 22:25:00,
2013-01-03 15:30:00,61.4,29.7,30.05,NW,324,4.0,9.0,30,0.00,,SKC,0.00,VWS V14.01,2013-01-03 22:30:00,
2013-01-03 15:35:00,61.0,29.4,30.05,NW,309,1.0,10.0,30,0.00,,SKC,0.00,VWS V14.01,2013-01-03 22:35:00,
2013-01-03 15:40:00,60.9,29.3,30.05,West,280,4.0,10.0,30,0.00,,SKC,0.00,VWS V14.01,2013-01-03 22:40:00,
2013-01-03 15:45:00,60.6,29.0,30.05,WNW,294,0.0,10.0,30,0.00,,SKC,0.00,VWS V14.01,2013-01-03 22:45:00,
2013-01-03 15:50:00,61.0,29.4,30.05,NNW,342,1.0,3.0,30,0.00,,SKC,0.00,VWS V14.01,2013-01-03 22:50:00,
2013-01-03 15:55:00,61.3,29.6,30.05,NNW,327,2.0,5.0,30,0.00,,SKC,0.00,VWS V14.01,2013-01-03 22:55:00,
2013-01-03 16:00:00,61.1,29.5,30.05,North,351,4.0,10.0,30,0.00,,SKC,0.00,VWS V14.01,2013-01-03 23:00:00,
2013-01-03 16:05:00,60.7,29.9,30.05,NNW,335,3.0,6.0,31,0.00,,SKC,0.00,VWS V14.01,2013-01-03 23:05:00,
2013-01-03 16:11:00,60.4,29.6,30.05,NW,321,5.0,9.0,31,0.00,,SKC,0.00,VWS V14.01,2013-01-03 23:11:00,
2013-01-03 16:15:00,60.2,29.5,30.06,NNW,333,2.0,9.0,31,0.00,,SKC,0.00,VWS V14.01,2013-01-03 23:15:00,
2013-01-03 16:16:00,60.3,29.6,30.06,NNW,336,1.0,9.0,31,0.00,,SKC,0.00,VWS V14.01,2013-01-03 23:16:00,
2013-01-03 16:21:00,60.2,29.5,30.06,NW,304,6.0,6.0,31,0.00,,SKC,0.00,VWS V14.01,2013-01-03 23:21:00,
2013-01-03 16:26:00,59.8,29.1,30.06,NW,307,2.0,8.0,31,0.00,,SKC,0.00,VWS V14.01,2013-01-03 23:26:00,
2013-01-03 16:30:00,59.1,29.3,30.06,WNW,300,0.0,8.0,32,0.00,,SKC,0.00,VWS V14.01,2013-01-03 23:30:00,
2013-01-03 16:31:00,59.1,29.3,30.06,WNW,300,0.0,8.0,32,0.00,,SKC,0.00,VWS V14.01,2013-01-03 23:31:00,
2013-01-03 16:36:00,59.0,29.2,30.06,NW,325,5.0,5.0,32,0.00,,SKC,0.00,VWS V14.01,2013-01-03 23:36:00,
2013-01-03 16:41:00,59.0,29.2,30.06,NW,309,5.0,5.0,32,0.00,,SKC,0.00,VWS V14.01,2013-01-03 23:41:00,
2013-01-03 16:45:00,58.5,28.8,30.06,WNW,294,4.0,7.0,32,0.00,,SKC,0.00,VWS V14.01,2013-01-03 23:45:00,
2013-01-03 16:46:00,58.5,28.8,30.06,WNW,294,4.0,7.0,32,0.00,,SKC,0.00,VWS V14.01,2013-01-03 23:46:00,
2013-01-03 16:51:00,58.3,28.6,30.06,West,276,0.0,5.0,32,0.00,,SKC,0.00,VWS V14.01,2013-01-03 23:51:00,
2013-01-03 16:57:00,58.4,28.7,30.07,WNW,302,0.0,5.0,32,0.00,,SKC,0.00,VWS V14.01,2013-01-03 23:57:00,
2013-01-03 17:00:00,58.2,28.5,30.07,NW,307,0.0,5.0,32,0.00,,SKC,0.00,VWS V14.01,2013-01-04 00:00:00,
2013-01-03 17:02:00,58.2,28.5,30.07,NW,307,0.0,0.0,32,0.00,,SKC,0.00,VWS V14.01,2013-01-04 00:02:00,
2013-01-03 17:07:00,58.1,28.4,30.07,NW,304,0.0,4.0,32,0.00,,SKC,0.00,VWS V14.01,2013-01-04 00:07:00,
2013-01-03 17:12:00,58.0,29.1,30.07,WNW,288,0.0,4.0,33,0.00,,SKC,0.00,VWS V14.01,2013-01-04 00:12:00,
2013-01-03 17:15:00,57.7,28.8,30.07,West,275,1.0,4.0,33,0.00,,SKC,0.00,VWS V14.01,2013-01-04 00:15:00,
2013-01-03 17:17:00,57.7,28.8,30.07,West,275,1.0,2.0,33,0.00,,SKC,0.00,VWS V14.01,2013-01-04 00:17:00,
2013-01-03 17:22:00,57.2,28.4,30.07,West,281,3.0,3.0,33,0.00,,SKC,0.00,VWS V14.01,2013-01-04 00:22:00,
2013-01-03 17:27:00,56.4,28.4,30.08,West,276,0.0,4.0,34,0.00,,SKC,0.00,VWS V14.01,2013-01-04 00:27:00,
2013-01-03 17:30:00,55.9,28.7,30.08,West,276,0.0,4.0,35,0.00,,SKC,0.00,VWS V14.01,2013-01-04 00:30:00,
2013-01-03 17:32:00,55.8,29.3,30.08,South,183,0.0,0.0,36,0.00,,SKC,0.00,VWS V14.01,2013-01-04 00:32:00,
2013-01-03 17:37:00,55.5,29.0,30.08,SSE,160,2.0,6.0,36,0.00,,SKC,0.00,VWS V14.01,2013-01-04 00:37:00,
2013-01-03 17:42:00,55.2,29.4,30.08,SE,146,4.0,6.0,37,0.00,,SKC,0.00,VWS V14.01,2013-01-04 00:42:00,
2013-01-03 17:45:00,54.8,29.0,30.08,SSE,151,1.0,6.0,37,0.00,,SKC,0.00,VWS V14.01,2013-01-04 00:45:00,
2013-01-03 17:47:00,54.7,29.6,30.08,SSE,159,3.0,4.0,38,0.00,,SKC,0.00,VWS V14.01,2013-01-04 00:47:00,
2013-01-03 17:52:00,54.4,29.3,30.09,SE,130,0.0,4.0,38,0.00,,SKC,0.00,VWS V14.01,2013-01-04 00:52:00,
2013-01-03 17:57:00,54.1,29.7,30.09,SE,132,0.0,4.0,39,0.00,,SKC,0.00,VWS V14.01,2013-01-04 00:57:00,
2013-01-03 18:00:00,53.7,30.0,30.09,SE,132,0.0,4.0,40,0.00,,SKC,0.00,VWS V14.01,2013-01-04 01:00:00,
2013-01-03 18:02:00,53.7,29.4,30.09,SE,132,0.0,0.0,39,0.00,,SKC,0.00,VWS V14.01,2013-01-04 01:02:00,
2013-01-03 18:07:00,53.2,29.5,30.09,SE,132,0.0,0.0,40,0.00,,SKC,0.00,VWS V14.01,2013-01-04 01:07:00,
2013-01-03 18:12:00,52.7,29.7,30.09,SSE,158,0.0,2.0,41,0.00,,SKC,0.00,VWS V14.01,2013-01-04 01:12:00,
2013-01-03 18:15:00,52.4,29.4,30.09,SSE,157,0.0,2.0,41,0.00,,SKC,0.00,VWS V14.01,2013-01-04 01:15:00,
2013-01-03 18:18:00,52.2,29.8,30.09,SSE,157,0.0,1.0,42,0.00,,SKC,0.00,VWS V14.01,2013-01-04 01:18:00,
2013-01-03 18:23:00,51.9,29.5,30.10,SE,140,0.0,4.0,42,0.00,,SKC,0.00,VWS V14.01,2013-01-04 01:23:00,
2013-01-03 18:28:00,51.4,29.7,30.10,SE,141,0.0,4.0,43,0.00,,SKC,0.00,VWS V14.01,2013-01-04 01:28:00,
2013-01-03 18:30:00,51.2,29.5,30.10,SSE,157,2.0,4.0,43,0.00,,SKC,0.00,VWS V14.01,2013-01-04 01:30:00,
2013-01-03 18:33:00,51.1,29.4,30.10,SSE,158,3.0,3.0,43,0.00,,SKC,0.00,VWS V14.01,2013-01-04 01:33:00,
2013-01-03 18:38:00,50.8,29.1,30.11,SSE,160,3.0,3.0,43,0.00,,SKC,0.00,VWS V14.01,2013-01-04 01:38:00,
2013-01-03 18:43:00,50.5,29.4,30.11,SSE,168,2.0,4.0,44,0.00,,SKC,0.00,VWS V14.01,2013-01-04 01:43:00,
2013-01-03 18:45:00,50.4,29.3,30.11,SSE,149,1.0,4.0,44,0.00,,SKC,0.00,VWS V14.01,2013-01-04 01:45:00,
2013-01-03 18:48:00,50.4,29.3,30.11,SE,146,1.0,5.0,44,0.00,,SKC,0.00,VWS V14.01,2013-01-04 01:48:00,
2013-01-03 18:53:00,50.6,29.5,30.11,SE,134,2.0,7.0,44,0.00,,SKC,0.00,VWS V14.01,2013-01-04 01:53:00,
2013-01-03 18:58:00,50.5,29.4,30.12,SE,136,2.0,7.0,44,0.00,,SKC,0.00,VWS V14.01,2013-01-04 01:58:00,
2013-01-03 19:00:00,50.4,29.3,30.12,SSE,153,2.0,7.0,44,0.00,,SKC,0.00,VWS V14.01,2013-01-04 02:00:00,
2013-01-03 19:03:00,50.3,29.2,30.12,SE,130,3.0,3.0,44,0.00,,SKC,0.00,VWS V14.01,2013-01-04 02:03:00,
2013-01-03 19:08:00,49.9,29.4,30.12,SSE,152,0.0,3.0,45,0.00,,SKC,0.00,VWS V14.01,2013-01-04 02:08:00,
2013-01-03 19:13:00,49.5,29.6,30.12,SSE,148,2.0,3.0,46,0.00,,SKC,0.00,VWS V14.01,2013-01-04 02:13:00,
2013-01-03 19:15:00,49.2,29.3,30.12,SSE,157,0.0,4.0,46,0.00,,SKC,0.00,VWS V14.01,2013-01-04 02:15:00,
2013-01-03 19:18:00,49.2,29.3,30.12,SSE,150,3.0,5.0,46,0.00,,SKC,0.00,VWS V14.01,2013-01-04 02:18:00,
2013-01-03 19:24:00,49.2,28.8,30.12,SSE,153,4.0,7.0,45,0.00,,SKC,0.00,VWS V14.01,2013-01-04 02:24:00,
2013-01-03 19:29:00,49.1,28.7,30.12,SE,139,4.0,8.0,45,0.00,,SKC,0.00,VWS V14.01,2013-01-04 02:29:00,
2013-01-03 19:30:00,49.0,28.6,30.13,SE,141,3.0,8.0,45,0.00,,SKC,0.00,VWS V14.01,2013-01-04 02:30:00,
2013-01-03 19:34:00,48.8,28.4,30.13,SE,132,3.0,8.0,45,0.00,,SKC,0.00,VWS V14.01,2013-01-04 02:34:00,
2013-01-03 19:39:00,48.7,28.9,30.13,SE,141,5.0,11.0,46,0.00,,SKC,0.00,VWS V14.01,2013-01-04 02:39:00,
2013-01-03 19:44:00,48.7,28.3,30.13,SSE,149,5.0,13.0,45,0.00,,SKC,0.00,VWS V14.01,2013-01-04 02:44:00,
2013-01-03 19:45:00,48.6,28.2,30.13,SE,128,1.0,13.0,45,0.00,,SKC,0.00,VWS V14.01,2013-01-04 02:45:00,
2013-01-03 19:49:00,48.6,28.2,30.13,SE,142,6.0,12.0,45,0.00,,SKC,0.00,VWS V14.01,2013-01-04 02:49:00,
2013-01-03 19:54:00,48.4,28.6,30.14,ESE,115,4.0,12.0,46,0.00,,SKC,0.00,VWS V14.01,2013-01-04 02:54:00,
2013-01-03 19:59:00,48.2,28.4,30.14,SE,139,14.0,14.0,46,0.00,,SKC,0.00,VWS V14.01,2013-01-04 02:59:00,
2013-01-03 20:00:00,48.1,28.3,30.14,ESE,107,5.0,14.0,46,0.00,,SKC,0.00,VWS V14.01,2013-01-04 03:00:00,
2013-01-03 20:04:00,48.0,28.2,30.14,ESE,122,5.0,9.0,46,0.00,,SKC,0.00,VWS V14.01,2013-01-04 03:04:00,
2013-01-03 20:09:00,47.8,28.0,30.14,SE,146,6.0,12.0,46,0.00,,SKC,0.00,VWS V14.01,2013-01-04 03:09:00,
2013-01-03 20:14:00,47.5,28.3,30.15,SE,128,8.0,12.0,47,0.00,,SKC,0.00,VWS V14.01,2013-01-04 03:14:00,
2013-01-03 20:15:00,47.4,28.2,30.15,SE,140,9.0,15.0,47,0.00,,SKC,0.00,VWS V14.01,2013-01-04 03:15:00,
2013-01-03 20:19:00,47.4,28.2,30.15,SE,130,1.0,13.0,47,0.00,,SKC,0.00,VWS V14.01,2013-01-04 03:19:00,
2013-01-03 20:24:00,47.2,28.0,30.15,SE,132,7.0,13.0,47,0.00,,SKC,0.00,VWS V14.01,2013-01-04 03:24:00,
2013-01-03 20:30:00,47.2,28.0,30.15,ESE,113,8.0,15.0,47,0.00,,SKC,0.00,VWS V14.01,2013-01-04 03:30:00,
2013-01-03 20:35:00,47.2,28.0,30.15,ESE,115,4.0,11.0,47,0.00,,SKC,0.00,VWS V14.01,2013-01-04 03:35:00,
2013-01-03 20:40:00,47.2,28.5,30.15,SE,142,4.0,16.0,48,0.00,,SKC,0.00,VWS V14.01,2013-01-04 03:40:00,
2013-01-03 20:45:00,47.2,28.5,30.15,SE,126,12.0,16.0,48,0.00,,SKC,0.00,VWS V14.01,2013-01-04 03:45:00,
2013-01-03 20:50:00,47.2,29.0,30.15,SE,138,2.0,13.0,49,0.00,,SKC,0.00,VWS V14.01,2013-01-04 03:50:00,
2013-01-03 20:55:00,47.3,29.1,30.15,SSE,152,7.0,15.0,49,0.00,,SKC,0.00,VWS V14.01,2013-01-04 03:55:00,
2013-01-03 21:00:00,47.4,29.7,30.15,SE,142,5.0,15.0,50,0.00,,SKC,0.00,VWS V14.01,2013-01-04 04:00:00,
2013-01-03 21:05:00,47.4,29.7,30.15,SE,132,19.0,19.0,50,0.00,,SKC,0.00,VWS V14.01,2013-01-04 04:05:00,
2013-01-03 21:10:00,47.2,29.5,30.15,SSE,150,4.0,19.0,50,0.00,,SKC,0.00,VWS V14.01,2013-01-04 04:10:00,
2013-01-03 21:15:00,47.1,29.9,30.15,ESE,113,9.0,19.0,51,0.00,,SKC,0.00,VWS V14.01,2013-01-04 04:15:00,
2013-01-03 21:16:00,47.1,29.9,30.15,SE,132,6.0,19.0,51,0.00,,SKC,0.00,VWS V14.01,2013-01-04 04:16:00,
2013-01-03 21:21:00,46.9,29.7,30.15,SSE,153,5.0,14.0,51,0.00,,SKC,0.00,VWS V14.01,2013-01-04 04:21:00,
2013-01-03 21:26:00,46.7,30.0,30.15,ESE,108,7.0,15.0,52,0.00,,SKC,0.00,VWS V14.01,2013-01-04 04:26:00,
2013-01-03 21:30:00,46.5,29.8,30.16,SE,133,10.0,15.0,52,0.00,,SKC,0.00,VWS V14.01,2013-01-04 04:30:00,
2013-01-03 21:31:00,46.5,29.8,30.16,ESE,120,10.0,15.0,52,0.00,,SKC,0.00,VWS V14.01,2013-01-04 04:31:00,
2013-01-03 21:36:00,46.4,29.8,30.16,SE,135,6.0,11.0,52,0.00,,SKC,0.00,VWS V14.01,2013-01-04 04:36:00,
2013-01-03 21:41:00,46.2,30.0,30.16,SE,132,6.0,15.0,53,0.00,,SKC,0.00,VWS V14.01,2013-01-04 04:41:00,
2013-01-03 21:45:00,46.0,30.3,30.16,SE,134,2.0,15.0,54,0.00,,SKC,0.00,VWS V14.01,2013-01-04 04:45:00,
2013-01-03 21:46:00,46.0,30.3,30.16,SE,140,3.0,15.0,54,0.00,,SKC,0.00,VWS V14.01,2013-01-04 04:46:00,
2013-01-03 21:51:00,45.9,30.2,30.17,SE,133,10.0,14.0,54,0.00,,SKC,0.00,VWS V14.01,2013-01-04 04:51:00,
2013-01-03 21:56:00,45.8,30.6,30.17,SE,129,10.0,14.0,55,0.00,,SKC,0.00,VWS V14.01,2013-01-04 04:56:00,
2013-01-03 22:00:00,45.6,30.4,30.17,SE,130,4.0,14.0,55,0.00,,SKC,0.00,VWS V14.01,2013-01-04 05:00:00,
2013-01-03 22:01:00,45.6,30.4,30.17,SE,132,8.0,14.0,55,0.00,,SKC,0.00,VWS V14.01,2013-01-04 05:01:00,
2013-01-03 22:02:00,45.6,30.4,30.17,SE,136,8.0,12.0,55,0.00,,SKC,0.00,VWS V14.01,2013-01-04 05:02:00,
2013-01-03 22:03:00,45.6,30.4,30.17,ESE,113,1.0,12.0,55,0.00,,SKC,0.00,VWS V14.01,2013-01-04 05:03:00,
2013-01-03 22:08:00,45.6,30.4,30.17,ESE,118,5.0,14.0,55,0.00,,SKC,0.00,VWS V14.01,2013-01-04 05:08:00,
2013-01-03 22:13:00,45.6,30.4,30.17,SE,130,13.0,16.0,55,0.00,,SKC,0.00,VWS V14.01,2013-01-04 05:13:00,
2013-01-03 22:15:00,45.5,30.3,30.17,SE,129,4.0,16.0,55,0.00,,SKC,0.00,VWS V14.01,2013-01-04 05:15:00,
2013-01-03 22:18:00,45.5,30.3,30.17,ESE,114,10.0,15.0,55,0.00,,SKC,0.00,VWS V14.01,2013-01-04 05:18:00,
2013-01-03 22:23:00,45.5,30.3,30.17,SSE,149,3.0,15.0,55,0.00,,SKC,0.00,VWS V14.01,2013-01-04 05:23:00,
2013-01-03 22:29:00,45.5,30.3,30.17,ESE,112,7.0,15.0,55,0.00,,SKC,0.00,VWS V14.01,2013-01-04 05:29:00,
2013-01-03 22:30:00,45.4,30.2,30.18,ESE,117,7.0,16.0,55,0.00,,SKC,0.00,VWS V14.01,2013-01-04 05:30:00,
2013-01-03 22:34:00,45.3,30.1,30.18,ENE,78,10.0,10.0,55,0.00,,SKC,0.00,VWS V14.01,2013-01-04 05:34:00,
2013-01-03 22:39:00,45.2,29.6,30.18,ESE,123,3.0,13.0,54,0.00,,SKC,0.00,VWS V14.01,2013-01-04 05:39:00,
2013-01-03 22:44:00,45.0,29.4,30.18,SE,132,6.0,13.0,54,0.00,,SKC,0.00,VWS V14.01,2013-01-04 05:44:00,
2013-01-03 22:45:00,45.0,29.4,30.18,ESE,121,1.0,13.0,54,0.00,,SKC,0.00,VWS V14.01,2013-01-04 05:45:00,
2013-01-03 22:49:00,44.9,29.3,30.18,SE,125,7.0,10.0,54,0.00,,SKC,0.00,VWS V14.01,2013-01-04 05:49:00,
2013-01-03 22:54:00,44.9,29.3,30.19,ESE,113,5.0,14.0,54,0.00,,SKC,0.00,VWS V14.01,2013-01-04 05:54:00,
2013-01-03 22:59:00,44.7,29.1,30.19,SE,129,3.0,14.0,54,0.00,,SKC,0.00,VWS V14.01,2013-01-04 05:59:00,
2013-01-03 23:00:00,44.7,29.1,30.18,SSE,148,3.0,14.0,54,0.00,,SKC,0.00,VWS V14.01,2013-01-04 06:00:00,
2013-01-03 23:04:00,44.7,29.1,30.19,ENE,78,9.0,13.0,54,0.00,,SKC,0.00,VWS V14.01,2013-01-04 06:04:00,
2013-01-03 23:09:00,44.7,29.1,30.18,ESE,123,8.0,13.0,54,0.00,,SKC,0.00,VWS V14.01,2013-01-04 06:09:00,
2013-01-03 23:14:00,44.7,29.1,30.18,SE,132,6.0,13.0,54,0.00,,SKC,0.00,VWS V14.01,2013-01-04 06:14:00,
2013-01-03 23:15:00,44.6,29.0,30.18,ESE,107,2.0,13.0,54,0.00,,SKC,0.00,VWS V14.01,2013-01-04 06:15:00,
2013-01-03 23:19:00,44.6,29.0,30.18,ESE,114,9.0,13.0,54,0.00,,SKC,0.00,VWS V14.01,2013-01-04 06:19:00,
2013-01-03 23:24:00,44.5,28.9,30.18,ESE,119,12.0,13.0,54,0.00,,SKC,0.00,VWS V14.01,2013-01-04 06:24:00,
2013-01-03 23:30:00,44.4,28.8,30.18,ESE,111,12.0,13.0,54,0.00,,SKC,0.00,VWS V14.01,2013-01-04 06:30:00,
2013-01-03 23:35:00,44.3,28.3,30.18,SE,146,5.0,9.0,53,0.00,,SKC,0.00,VWS V14.01,2013-01-04 06:35:00,
2013-01-03 23:40:00,44.3,28.7,30.19,SSE,152,9.0,14.0,54,0.00,,SKC,0.00,VWS V14.01,2013-01-04 06:40:00,
2013-01-03 23:45:00,44.2,28.2,30.18,SE,132,8.0,16.0,53,0.00,,SKC,0.00,VWS V14.01,2013-01-04 06:45:00,
2013-01-03 23:50:00,44.1,28.5,30.19,ESE,117,10.0,12.0,54,0.00,,SKC,0.00,VWS V14.01,2013-01-04 06:50:00,
2013-01-03 23:55:00,44.1,28.5,30.19,ESE,121,10.0,13.0,54,0.00,,SKC,0.00,VWS V14.01,2013-01-04 06:55:00,